Theta_e
346 347 345 342 339 339 345 349 351 355 355 353 354 353 352 350 348 345 344 344 338 336
348 347 347 343 342 338 343 351 351 354 356 353 354 353 352 351 351 350 346 343 345 339
348 352 349 345 343 348 341 348 351 351 355 355 354 353 351 351 351 351 349 347 344 343
347 346 353 348 344 345 347 343 346 352 353 355 354 353 351 350 352 350 350 350 346 344
351 349 346 352 349 346 346 348 347 351 352 354 354 354 352 351 353 352 350 351 348 346
351 352 350 347 351 351 347 347 349 354 353 354 354 354 355 353 351 352 352 352 349 349
351 353 354 352 349 351 352 346 350 352 356 355 356 355 355 355 354 353 352 352 352 351
352 354 356 355 353 352 351 353 349 350 352 356 356 356 355 355 354 354 352 351 353 352
354 354 354 355 355 354 353 350 352 352 352 352 357 344 341 352 354 354 352 351 350 352
353 354 355 355 355 355 355 354 350 352 353 352 354 337 336 341 355 354 354 353 352 351
354 354 356 355 355 356 356 356 356 353 353 354 354 334 332 337 353 354 354 355 355 353
353 355 355 355 356 357 357 357 357 358 356 354 356 331 329 333 349 354 355 355 355 356
350 353 354 355 355 357 358 357 358 358 360 351 357 333 326 332 352 352 353 356 356 338
349 350 353 354 356 356 357 356 356 356 357 358 356 355 324 323 354 355 354 354 354 356
Wind_Speed
13 10 10 10 5 6 6 6 8 10 9 9 8 6 6 4 4 5 4 6 4 3
14 15 13 9 7 6 6 6 9 11 10 10 9 8 6 5 6 5 5 6 5 4
15 12 11 9 9 9 7 8 8 9 11 10 10 10 8 6 5 7 5 5 6 6
14 14 10 11 11 11 8 8 8 10 10 11 10 10 9 8 8 9 8 6 7 7
15 14 14 13 12 12 12 9 8 8 9 11 13 13 13 12 11 10 10 11 7 11
16 16 16 16 15 12 12 12 7 9 12 14 14 14 14 13 12 11 12 11 12 12
18 17 16 16 16 15 12 12 12 11 11 12 13 14 15 14 13 12 12 11 12 12
18 18 16 16 16 15 15 13 14 14 10 12 13 11 14 14 15 15 14 12 12 12
17 17 18 17 16 16 15 15 14 15 15 13 12 15 19 17 14 15 15 14 13 14
17 17 17 16 16 16 16 15 17 16 16 17 16 16 20 21 15 14 15 16 14 13
16 17 16 16 16 16 14 16 16 16 16 16 15 14 18 19 19 16 17 16 17 16
17 16 16 16 16 16 14 14 15 15 17 18 15 15 17 16 14 16 20 16 16 17
15 17 18 17 17 15 15 15 13 15 16 17 16 15 18 18 11 16 13 15 18 19
16 17 17 16 15 14 14 13 14 14 14 14 13 14 18 20 14 13 12 13 13 12
Wind_Direction
179 193 202 204 188 195 193 196 191 196 195 193 190 196 181 185 187 181 195 187 186 179
193 197 203 199 189 189 187 193 193 193 193 192 189 192 180 183 199 182 193 207 198 197
193 193 200 190 193 199 191 198 194 191 195 195 195 190 189 191 191 185 197 204 203 216
197 199 189 197 203 210 202 192 199 199 193 198 196 196 189 202 194 195 199 202 205 222
194 196 198 203 205 207 210 209 191 191 187 194 197 194 198 204 206 202 204 206 195 219
196 195 202 209 209 207 209 212 198 182 192 197 198 195 201 205 207 206 211 204 204 215
195 196 200 206 209 207 205 206 207 206 196 197 199 201 200 203 209 216 216 211 210 214
197 198 199 201 207 208 208 208 213 212 204 204 202 200 202 206 209 214 222 217 216 216
195 197 202 204 202 205 207 210 211 215 213 205 213 204 198 202 210 215 220 223 221 227
197 198 203 202 205 205 208 206 215 217 219 223 219 201 198 202 214 216 221 223 224 224
195 200 203 202 205 210 206 209 212 218 221 223 229 201 198 201 217 226 227 226 225 226
195 197 201 204 204 209 210 214 216 217 219 223 224 203 194 189 217 230 235 233 230 230
192 199 204 202 205 207 211 215 216 222 221 221 225 202 195 190 216 232 234 236 240 226
198 201 205 203 207 207 210 216 220 224 225 225 214 216 195 194 214 230 237 240 244 243